Location: Unspecified
(0.0000°N, 0.0000°E)
Time: 07:38:06
(UTC+00:00)

CUTE-I - Visible Passes

Search period start: 16 January 2018 00:00
Search period end: 26 January 2018 00:00
Orbit: 810 x 826 km, 98.7° (Epoch: 15 January)

Date Brightness Start Highest point End Pass type
(mag) Time Alt. Az. Time Alt. Az. Time Alt. Az.
16 Jan ? 05:28:12 10° NE 05:33:03 36° ESE 05:37:55 10° SSE visible
17 Jan ? 05:07:58 10° NE 05:11:50 21° ESE 05:15:42 10° SSE visible
18 Jan ? 04:49:16 10° E 04:50:37 11° ESE 04:51:58 10° ESE visible
18 Jan ? 19:06:35 10° SW 19:09:42 16° WSW 19:12:48 10° WNW visible
19 Jan ? 18:43:58 10° SSW 18:48:29 28° WSW 18:52:59 10° NW visible
20 Jan ? 05:42:40 10° NNE 05:47:52 55° ESE 05:53:05 10° S visible
21 Jan ? 05:22:00 10° NE 05:26:38 31° ESE 05:31:17 10° SSE visible
22 Jan ? 05:02:01 10° ENE 05:05:25 17° ESE 05:08:50 10° SE visible
23 Jan ? 18:59:39 10° SSW 19:03:17 19° WSW 19:06:55 10° WNW visible
24 Jan ? 18:37:19 10° SSW 18:42:04 33° WSW 18:46:48 10° NW visible
25 Jan ? 05:36:22 10° NNE 05:41:27 46° ESE 05:46:34 10° S visible
